GFSSE_925_thetae_210.txt.gz
Theta_e
346 338 337 336 338 344 343 340 337 330 329 327 326 328 332 335 333 331 331 332 333 336 339 339 337 340 339 337 335 341 331 327 331 333 333 335 338 343 343 344 342 334 333
341 338 336 336 340 345 343 342 338 331 330 327 327 327 330 334 333 328 328 331 334 336 337 338 335 334 335 334 332 332 326 327 333 334 333 334 336 340 342 342 340 332 330
338 337 336 336 342 345 343 343 339 332 332 328 327 327 331 335 332 329 328 330 333 335 337 339 339 339 337 333 330 326 324 325 331 335 336 338 341 336 338 339 334 329 328
337 336 335 337 342 345 343 344 341 333 334 331 328 328 333 337 334 334 334 334 334 334 334 335 337 337 336 337 334 328 324 324 328 335 341 349 349 347 338 338 339 335 330
336 335 334 336 340 344 344 345 342 335 336 334 331 329 331 336 337 338 339 339 339 338 337 338 339 340 340 339 337 332 329 323 324 328 333 339 346 349 346 339 342 340 335
336 335 334 335 338 342 344 345 343 336 336 337 334 332 331 335 337 339 341 344 343 342 343 343 342 341 340 335 331 331 328 329 324 324 326 331 338 341 345 343 343 342 339
336 335 334 334 336 340 342 344 342 338 336 339 338 336 335 335 336 339 342 343 341 340 339 336 336 336 334 333 331 325 323 325 324 323 324 326 336 339 349 347 344 345 342
336 335 334 333 332 334 337 339 339 339 338 341 342 340 338 337 336 337 339 341 339 339 337 337 337 336 334 333 332 330 328 324 321 321 322 324 327 337 341 345 346 346 343
337 335 335 334 332 332 332 333 334 337 338 341 343 343 342 341 339 336 334 335 336 337 336 336 334 332 331 332 334 334 332 328 326 325 323 321 322 330 335 339 345 348 346
337 336 336 334 333 332 331 330 330 332 337 341 344 344 341 340 339 336 333 332 333 334 333 332 333 334 335 336 336 336 335 334 331 330 330 332 329 323 325 339 347 348 347
340 337 336 335 334 333 332 331 330 329 330 335 340 340 339 337 335 333 328 328 330 331 332 332 333 335 336 339 342 345 338 340 342 341 341 341 340 331 331 332 347 349 348
345 339 337 336 335 334 334 332 331 332 332 333 333 332 331 331 331 331 328 330 337 339 339 336 337 342 343 347 348 348 349 349 346 344 344 344 343 342 339 333 335 348 348
347 344 339 338 337 336 336 334 333 333 332 332 331 329 328 331 340 340 340 340 341 341 341 346 349 348 348 345 342 341 343 345 347 346 345 344 345 346 345 342 338 337 346
350 344 343 341 340 344 345 337 335 335 333 332 333 334 331 339 341 343 344 344 344 347 348 348 339 339 339 341 341 338 331 329 330 333 334 337 340 343 345 343 342 341 340
352 352 351 351 350 349 350 347 341 342 339 343 341 344 345 342 349 347 346 347 347 347 345 340 339 340 340 332 329 328 326 324 327 330 331 331 333 333 334 339 341 341 342
353 353 354 356 355 353 353 352 351 350 349 348 346 346 348 348 347 347 346 344 345 344 343 339 334 331 328 326 324 321 322 326 328 328 328 329 330 330 330 331 336 341 341
354 354 354 355 357 357 357 357 356 352 351 349 348 347 348 348 347 345 343 343 342 334 329 330 328 327 326 322 320 320 322 326 325 321 327 328 329 330 330 333 333 333 333
344 350 349 348 350 354 356 356 354 353 353 353 350 347 346 340 344 339 345 335 328 328 328 326 326 325 324 321 323 324 325 326 320 320 323 328 320 321 333 332 330 332 336
332 340 348 349 348 352 356 354 353 355 353 350 347 346 341 344 342 338 342 328 328 327 326 326 325 323 324 324 324 324 321 319 317 319 324 320 324 329 327 330 332 328 331
341 344 340 347 351 348 345 347 353 352 351 349 345 344 341 338 338 335 329 328 327 325 325 323 322 322 321 321 319 319 316 314 314 326 324 321 327 321 326 329 326 326 332
343 346 349 352 347 347 349 347 351 348 349 348 345 345 344 343 333 331 328 327 326 325 321 322 319 317 318 321 320 321 316 317 322 318 321 323 324 326 326 321 330 331 328
339 341 339 337 341 341 338 340 343 344 344 344 341 334 333 330 329 329 328 325 322 320 318 318 320 319 320 323 324 322 318 319 320 319 321 323 323 323 322 325 328 327 329
333 332 331 330 330 335 335 336 339 337 334 332 331 331 331 330 329 327 323 321 322 320 319 318 320 322 322 318 319 321 320 319 321 321 320 322 322 325 326 326 326 330 329
332 331 329 327 327 326 330 329 332 330 328 332 332 329 328 327 326 324 322 322 321 320 317 319 319 318 319 320 319 321 321 322 320 321 322 321 323 323 326 325 328 327 329
330 328 326 326 326 325 323 323 327 327 326 326 325 325 325 326 324 323 323 321 319 318 318 318 317 318 318 319 320 320 320 321 321 320 322 320 322 323 323 326 326 328 326
327 318 319 318 320 325 325 325 323 321 322 322 322 324 324 323 322 321 319 319 319 318 317 317 317 317 317 318 319 319 320 320 321 320 321 321 322 323 325 325 326 324 323

GFSSE_925_thetae_216.txt.gz
Theta_e
346 340 340 344 339 335 330 325 326 329 336 341 345 345 345 342 340 338 336 333 337 341 342 339 338 339 341 344 342 337 328 331 332 335 338 341 341 342 343 341 333 333 332
343 339 340 344 339 337 331 327 327 325 329 336 342 344 343 342 339 336 333 333 339 341 336 336 337 337 335 336 338 329 329 333 333 335 336 338 341 342 343 342 334 331 334
340 337 340 344 339 338 332 329 328 325 327 330 334 336 336 336 336 335 334 338 340 338 335 334 334 334 333 332 330 328 330 335 336 335 336 337 338 341 340 340 334 330 329
338 337 339 344 340 340 334 331 329 326 326 328 332 333 331 331 333 334 336 338 340 340 340 340 340 339 337 334 331 328 329 332 337 339 339 347 349 346 342 339 339 335 333
337 337 338 343 341 341 337 333 332 327 326 327 331 334 331 330 330 333 336 337 339 341 340 339 337 336 339 338 337 334 329 328 330 334 337 340 345 346 345 346 342 341 337
337 336 339 343 342 342 340 335 334 331 328 326 329 333 332 332 331 332 334 335 335 337 338 338 340 340 340 336 330 331 330 332 330 327 327 328 329 337 335 341 343 343 342
335 335 341 342 342 342 342 337 335 335 331 329 328 331 333 334 335 336 339 342 342 342 340 338 336 335 334 333 333 332 330 327 326 325 324 324 324 326 331 335 345 346 343
335 338 342 343 343 342 342 340 335 336 335 333 331 330 332 333 336 338 341 341 339 338 336 335 335 335 334 333 333 334 334 333 331 328 327 326 326 325 323 327 338 344 346
340 340 343 344 343 343 342 341 337 336 337 336 335 334 333 333 334 337 339 339 338 336 336 337 336 335 334 334 336 338 338 336 336 339 341 341 341 340 338 335 324 327 333
341 341 344 343 344 345 343 341 338 336 337 338 338 337 336 336 336 335 335 334 335 335 336 335 333 333 335 338 341 345 346 347 347 347 346 345 344 344 343 342 336 330 328
340 341 340 342 342 341 340 340 338 337 338 340 340 340 339 339 338 337 335 333 332 333 333 332 332 334 337 342 345 344 340 339 339 338 336 334 335 337 339 341 342 344 344
341 340 337 337 337 336 337 337 336 337 337 339 341 341 341 339 337 336 334 331 330 332 334 336 337 343 346 345 342 338 330 328 328 328 329 329 330 332 331 331 335 337 342
341 337 336 336 336 336 335 335 336 336 336 337 338 340 340 338 336 334 332 330 332 336 339 340 344 345 344 342 336 327 325 324 326 327 326 326 328 329 329 330 330 331 336
343 338 337 336 334 334 334 334 337 334 333 333 334 337 337 335 333 336 334 336 338 339 342 343 344 341 342 335 326 323 321 321 323 320 317 317 322 326 325 324 329 331 332
346 341 337 337 335 334 335 336 336 333 334 333 333 333 333 332 332 340 342 342 343 344 342 344 343 341 334 324 321 320 319 319 319 316 314 315 321 319 322 326 329 330 331
349 347 339 336 337 336 336 336 337 335 337 336 335 334 334 334 335 340 344 344 344 344 343 342 341 335 324 322 320 318 316 315 313 312 313 316 318 318 327 324 325 330 331
348 348 341 337 337 338 338 338 345 338 338 340 338 338 341 343 342 346 345 344 344 343 342 337 330 325 323 320 316 313 312 312 311 311 315 317 313 311 321 322 327 322 323
349 348 341 340 340 342 342 345 348 345 341 345 343 344 344 345 347 345 343 339 338 340 340 327 325 323 318 315 312 311 311 311 312 315 316 314 313 316 315 321 323 320 329
349 349 349 350 351 351 350 350 352 349 348 348 347 346 346 346 346 344 341 333 330 328 326 325 320 316 314 312 312 312 312 312 313 315 315 313 313 317 319 320 321 324 326
350 351 351 353 352 352 351 350 351 350 350 349 348 346 344 342 342 337 336 329 327 325 321 317 314 314 315 313 312 313 312 313 314 316 314 315 318 315 317 318 322 324 327
339 340 340 342 343 346 347 349 346 343 344 345 344 344 340 341 336 331 329 327 324 319 315 314 315 315 314 314 313 313 313 313 315 314 317 318 317 316 318 320 321 323 324
329 331 333 334 335 337 338 341 342 343 343 341 341 342 338 337 334 328 327 323 319 316 315 314 313 314 316 315 316 316 318 316 316 314 318 318 319 318 316 320 322 322 324
323 324 324 326 330 334 336 336 336 335 333 331 330 330 329 328 328 327 325 322 320 319 318 316 315 314 315 315 316 317 318 319 318 318 316 319 317 317 318 320 321 322 323
313 317 321 323 324 325 326 329 333 333 332 331 328 329 329 328 326 325 324 323 321 320 320 320 319 317 317 315 317 319 318 318 321 321 318 317 317 318 318 319 320 320 323
310 310 311 314 315 317 321 322 322 326 328 330 329 328 328 327 326 325 323 322 321 320 320 319 317 317 315 315 316 317 317 317 318 318 320 317 316 317 318 320 317 320 322
307 306 306 307 307 308 310 313 315 318 320 321 323 325 325 325 324 324 323 322 321 321 320 318 317 316 315 315 316 317 317 317 318 318 318 317 318 318 319 318 318 320 320

GFSSE_925_thetae_219.txt.gz
Theta_e
350 352 346 340 335 330 327 332 339 345 345 344 343 343 337 337 335 333 335 344 345 345 344 342 342 344 342 341 339 330 331 333 336 338 341 341 341 341 339 335 333 338 334
350 351 345 340 335 329 326 328 334 341 344 344 346 345 341 339 338 336 334 338 342 343 339 339 339 339 341 342 337 330 333 334 335 338 340 341 341 342 342 337 330 335 332
350 351 345 340 336 330 327 327 327 332 339 344 345 344 343 341 339 337 335 338 343 340 339 338 337 336 335 334 330 329 334 336 336 338 338 346 345 340 341 341 335 330 329
349 350 348 340 338 331 329 327 325 327 331 336 339 339 338 337 335 333 334 341 342 338 339 339 338 336 334 331 329 328 330 336 339 339 346 349 349 347 345 342 340 338 333
352 348 348 341 339 333 331 329 326 326 327 330 331 331 330 330 331 332 335 339 340 339 339 340 338 337 339 338 336 333 330 330 332 338 343 344 346 346 344 343 346 343 341
351 351 344 342 340 336 332 331 328 326 327 329 332 331 329 329 331 333 335 337 338 338 337 337 340 341 340 336 331 331 331 332 331 336 335 334 333 334 336 335 337 344 343
350 351 352 344 341 340 334 333 331 328 327 329 332 332 330 329 330 332 334 336 338 341 342 341 339 336 335 334 333 333 332 330 336 335 333 332 331 324 324 326 331 343 346
346 351 353 343 342 342 338 335 334 331 329 329 332 333 334 334 335 337 342 344 341 339 337 336 336 335 334 333 334 335 335 334 340 340 340 340 338 337 336 334 326 336 343
345 346 351 351 346 343 342 338 335 336 333 332 331 333 336 337 339 340 341 341 339 336 337 336 335 334 334 335 339 342 341 341 349 348 348 347 344 344 343 342 337 328 327
339 336 347 352 352 351 350 342 337 336 337 336 335 335 335 336 337 337 338 339 338 336 337 336 334 334 336 339 343 346 346 345 349 348 347 342 338 340 340 341 343 343 342
340 338 343 344 348 349 349 345 340 337 337 339 340 339 340 346 346 345 342 337 334 334 335 335 333 334 337 342 345 342 338 342 341 340 339 330 331 332 332 332 334 337 341
345 341 339 338 344 342 348 348 347 346 347 347 346 345 347 346 345 345 342 336 333 333 333 334 335 341 346 349 347 336 335 334 334 333 331 327 329 329 329 329 330 331 333
343 339 340 339 337 337 348 346 344 346 346 345 339 341 347 347 345 344 343 341 341 337 343 343 345 347 347 347 340 332 329 330 328 326 322 317 321 324 325 325 327 329 331
343 338 339 337 337 337 338 339 337 341 333 335 342 340 346 345 343 342 341 340 340 342 344 347 347 346 347 338 328 325 325 326 324 322 321 315 318 319 319 321 326 330 331
344 340 335 335 335 335 337 336 337 336 335 345 339 339 340 342 339 337 343 344 345 344 344 345 344 342 338 325 322 321 319 317 315 319 321 315 317 315 322 324 325 329 331
347 341 337 336 335 334 334 334 336 336 336 337 337 336 336 335 333 334 339 344 346 345 344 343 343 340 325 322 320 316 313 315 315 314 321 323 314 311 314 324 325 326 324
349 348 341 335 336 337 336 336 336 340 338 337 339 337 337 339 342 341 347 346 344 344 343 341 339 329 323 319 315 313 314 312 315 318 323 320 319 319 315 317 321 323 322
348 349 346 342 338 338 338 339 339 347 346 340 342 342 343 343 344 345 345 342 338 340 340 331 326 325 320 319 316 313 316 314 317 321 320 319 320 321 321 318 319 320 322
350 350 349 349 343 342 344 346 347 348 348 345 347 347 346 346 345 346 343 336 331 332 330 326 322 321 322 319 319 319 316 320 320 319 319 319 321 320 321 321 319 324 325
335 339 344 349 350 351 351 351 348 347 347 346 345 346 344 345 343 340 338 332 328 326 324 320 316 316 316 318 318 319 320 320 320 319 319 321 321 320 320 322 323 324 324
324 326 329 333 336 338 342 345 346 344 342 343 343 343 342 341 341 336 334 329 325 322 317 314 317 321 320 318 319 318 320 318 318 321 320 321 321 320 319 321 323 324 325
318 318 321 324 328 332 334 337 339 341 342 341 340 341 338 337 334 330 329 326 323 319 315 314 313 320 319 316 320 320 321 320 320 320 320 320 322 320 319 319 323 324 326
312 312 314 315 318 321 325 328 333 335 335 335 333 333 334 332 330 328 326 324 321 320 320 317 317 317 320 320 316 319 322 324 321 320 320 320 321 319 319 319 321 322 323
309 309 309 308 309 311 315 318 322 326 330 332 330 330 330 329 328 326 325 323 322 323 323 320 319 321 320 322 321 320 320 319 321 322 320 320 320 320 319 320 321 321 322
307 308 308 307 306 306 309 311 314 316 319 322 324 325 328 328 327 327 324 323 322 323 322 322 321 320 321 321 321 322 321 320 321 321 322 319 319 318 318 320 321 320 322
306 306 306 306 307 307 307 307 308 310 311 313 316 319 321 323 325 325 326 326 324 324 322 322 322 321 321 320 320 320 319 320 320 320 321 320 319 317 318 318 319 320 321

GFSSE_925_thetae_222.txt.gz
Theta_e
348 356 345 337 332 334 342 347 347 344 341 337 334 335 337 333 334 338 345 347 347 346 345 344 345 342 341 340 336 330 333 336 339 341 343 343 342 341 338 331 339 338 329
347 355 344 337 332 332 339 344 345 344 343 338 337 337 336 334 334 336 344 346 346 344 341 341 341 343 344 342 336 330 333 335 338 341 341 342 341 342 342 337 335 336 328
349 354 351 337 332 328 332 337 341 345 345 344 344 341 340 338 335 334 339 343 344 340 339 338 337 336 335 335 331 332 336 337 338 338 341 350 350 345 342 342 338 332 329
351 353 353 338 332 328 330 332 336 341 344 345 345 343 342 340 338 336 335 341 342 337 337 336 336 335 333 330 329 329 332 337 338 337 348 349 351 349 346 345 343 341 336
351 352 355 339 334 329 328 328 330 335 340 344 343 342 340 338 335 334 336 341 340 339 341 341 338 337 338 337 334 330 327 328 332 339 347 346 346 349 341 340 347 349 345
351 351 351 340 336 331 329 328 328 330 333 335 335 334 334 334 334 333 337 340 340 341 341 339 338 340 340 338 332 332 332 331 328 339 339 339 335 338 332 334 335 337 345
347 350 352 341 339 333 332 329 328 327 330 332 333 332 330 332 334 335 337 339 339 339 341 342 341 338 335 333 333 332 331 327 335 335 334 334 334 331 323 324 325 327 341
346 348 352 345 342 337 334 332 330 328 328 331 334 334 332 331 332 334 336 339 343 343 340 337 336 335 335 334 334 335 335 333 339 335 335 336 340 340 340 339 337 329 333
345 347 349 351 350 342 338 335 334 331 330 331 334 336 336 337 338 340 343 344 341 339 338 337 337 336 335 335 338 341 340 336 346 343 344 344 347 344 343 343 343 337 330
344 345 347 349 349 350 349 338 336 336 334 333 334 335 336 337 337 339 341 340 340 338 337 337 335 335 335 339 342 345 346 346 350 345 346 343 336 337 337 338 339 342 343
344 345 347 347 350 348 347 350 340 337 337 337 339 337 339 344 346 345 343 344 340 337 337 336 334 333 336 341 345 342 340 345 342 342 341 332 331 331 331 331 331 333 336
344 345 346 349 347 347 348 350 349 347 345 346 346 349 346 346 346 345 344 342 334 333 334 333 333 335 342 346 349 341 342 339 339 336 334 325 326 327 327 327 327 329 330
343 346 346 349 348 345 344 347 345 345 346 347 348 349 348 347 346 343 342 342 341 339 339 341 341 345 347 346 346 340 334 332 329 326 325 316 316 318 319 321 323 327 330
342 346 348 349 350 349 347 345 344 345 347 347 347 349 349 348 345 342 341 341 341 342 344 345 346 348 347 347 336 332 328 327 326 323 324 316 317 317 320 322 324 327 331
345 345 348 349 349 350 346 346 346 346 347 348 348 348 347 346 345 342 343 346 347 347 348 347 348 346 342 331 328 322 326 323 316 319 323 322 316 312 314 321 324 326 328
354 347 348 346 348 348 346 347 347 348 347 346 347 347 346 346 345 343 344 348 348 347 348 347 347 342 338 331 325 318 316 319 321 321 322 325 319 315 313 313 319 323 324
346 351 350 346 347 348 346 346 345 346 348 347 347 349 347 347 349 350 347 349 349 349 346 345 341 339 330 324 321 322 318 321 321 324 323 322 322 321 320 316 315 317 319
353 354 352 346 346 347 347 347 347 348 352 351 348 350 350 350 351 351 349 348 345 346 345 341 337 333 326 322 319 322 320 321 323 325 322 322 322 322 322 322 317 316 320
341 347 350 351 349 350 351 352 352 354 353 352 352 352 351 351 350 350 349 345 341 340 341 338 335 333 329 326 323 321 322 322 323 321 323 323 324 323 322 322 322 321 323
330 331 335 336 342 350 350 351 350 349 347 346 348 348 349 348 347 347 345 342 338 336 335 333 331 329 327 323 320 320 322 321 322 322 323 323 324 324 323 323 324 324 324
322 324 324 326 330 335 341 344 347 347 345 346 345 345 345 346 344 343 342 339 335 332 332 330 328 326 323 322 322 325 323 324 324 323 323 322 323 323 323 322 322 323 324
316 317 319 321 322 325 331 334 339 341 343 343 341 343 341 341 340 339 338 337 335 332 330 328 326 325 325 325 326 325 326 324 323 324 324 323 323 324 322 322 322 323 326
314 314 315 316 317 319 322 326 330 335 338 339 338 338 338 337 337 337 335 334 332 331 329 328 327 327 328 326 325 325 328 325 324 322 323 324 324 324 323 322 323 323 324
312 313 313 314 314 314 315 317 320 322 325 327 329 330 331 334 335 334 334 333 332 331 329 330 330 329 327 327 326 327 326 326 325 323 320 321 323 321 321 321 321 322 323
311 311 312 313 312 312 313 313 313 314 315 317 319 321 325 328 329 331 331 331 331 331 330 330 329 328 327 327 326 325 325 325 324 326 325 321 319 319 319 318 319 321 320
311 311 310 311 311 311 311 311 311 311 312 313 314 315 316 318 322 325 328 329 329 330 330 330 329 328 328 327 325 324 324 323 323 323 323 322 320 318 318 318 319 319 319